TRA16P EHRD-LICC

Flight info

Callsign TRA16P
Flight time 2h 21m
Altitude 37000
Route LUNIX Z739 MISGO DCT ASBON DCT TUSUK/N0447F390 DCT UTABA DCT BEMKI DCT ELMEM DCT GIRIS DCT SUMIR DCT UNUMU DCT MOPUV DCT PEVIR DCT NERAR DCT PELEN DCT UXUTA
Aircraft B738/M-SDE2E3FGIJ1RWXYZ/LB1

Departure

Time 2026-04-28 14:23
Airport Rotterdam The Hague Airport (EHRD)

Arrival

Time 2026-04-28 16:45
Airport Catania-Fontanarossa Airport (LICC)
Time Latitude Longitude Altitude Speed Heading
2026-04-28 14:08 51.95164 4.43349 -6 ft 0 kts 327°
2026-04-28 14:20 51.95166 4.43347 -6 ft 2 kts 326°
2026-04-28 14:21 51.95189 4.43287 -6 ft 8 kts 263°
2026-04-28 14:21 51.95155 4.43182 -6 ft 11 kts 242°
2026-04-28 14:21 51.95120 4.43067 -6 ft 11 kts 247°
2026-04-28 14:21 51.95109 4.43021 -6 ft 1 kts 251°
2026-04-28 14:22 51.95108 4.43006 -6 ft 2 kts 269°
2026-04-28 14:22 51.95124 4.42948 -6 ft 10 kts 307°
2026-04-28 14:22 51.95192 4.42865 -6 ft 12 kts 345°
2026-04-28 14:22 51.95255 4.42945 -6 ft 15 kts 56°
2026-04-28 14:23 51.95475 4.43491 -6 ft 101 kts 57°
2026-04-28 14:23 51.95986 4.44749 234 ft 153 kts 54°
2026-04-28 14:23 51.96675 4.46115 1264 ft 160 kts 51°
2026-04-28 14:23 51.97295 4.47673 2201 ft 174 kts 62°
2026-04-28 14:24 51.97862 4.49529 2767 ft 190 kts 64°
2026-04-28 14:24 51.98477 4.51597 2976 ft 214 kts 67°
2026-04-28 14:24 51.98935 4.53932 2785 ft 215 kts 73°
2026-04-28 14:24 51.99160 4.56376 2810 ft 229 kts 95°
2026-04-28 14:25 51.98788 4.58965 2948 ft 240 kts 101°
2026-04-28 14:25 51.98403 4.61620 3467 ft 244 kts 99°
2026-04-28 14:25 51.98061 4.64301 4635 ft 242 kts 99°
2026-04-28 14:25 51.97749 4.66984 5716 ft 243 kts 99°
2026-04-28 14:26 51.97457 4.69708 6687 ft 248 kts 99°
2026-04-28 14:26 51.97177 4.72479 7693 ft 249 kts 98°
2026-04-28 14:26 51.96909 4.75317 8516 ft 258 kts 98°
2026-04-28 14:26 51.96646 4.78220 9462 ft 262 kts 97°
2026-04-28 14:27 51.96358 4.81156 10417 ft 266 kts 104°
2026-04-28 14:27 51.95519 4.83938 10885 ft 289 kts 121°
2026-04-28 14:27 51.94309 4.86737 11095 ft 317 kts 124°
2026-04-28 14:27 51.92983 4.89687 11772 ft 324 kts 124°
2026-04-28 14:28 51.91650 4.92645 12656 ft 330 kts 125°
2026-04-28 14:28 51.90275 4.95722 13245 ft 342 kts 124°
2026-04-28 14:28 51.88898 4.98830 14283 ft 339 kts 124°
2026-04-28 14:28 51.87516 5.01973 14942 ft 346 kts 124°
2026-04-28 14:29 51.86123 5.05157 15746 ft 349 kts 124°
2026-04-28 14:29 51.84719 5.08377 16505 ft 353 kts 124°
2026-04-28 14:29 51.83294 5.11657 17198 ft 358 kts 124°
2026-04-28 14:29 51.81848 5.14981 17840 ft 365 kts 124°
2026-04-28 14:30 51.80372 5.18376 18515 ft 369 kts 123°
2026-04-28 14:30 51.78899 5.21756 19295 ft 370 kts 123°
2026-04-28 14:30 51.77402 5.25178 19955 ft 371 kts 123°
2026-04-28 14:30 51.75913 5.28581 20695 ft 373 kts 123°
2026-04-28 14:31 51.74396 5.32046 21125 ft 382 kts 124°
2026-04-28 14:31 51.72857 5.35562 21676 ft 388 kts 124°
2026-04-28 14:31 51.71283 5.39154 22110 ft 395 kts 124°
2026-04-28 14:31 51.69700 5.42773 22871 ft 394 kts 124°
2026-04-28 14:32 51.68113 5.46396 23463 ft 398 kts 124°
2026-04-28 14:32 51.66503 5.50060 23931 ft 403 kts 125°
2026-04-28 14:32 51.64869 5.53769 24300 ft 409 kts 125°
2026-04-28 14:32 51.63215 5.57513 24777 ft 412 kts 125°
2026-04-28 14:33 51.62113 5.60006 25071 ft 414 kts 125°
2026-04-28 14:33 51.60437 5.63790 25553 ft 416 kts 125°
2026-04-28 14:33 51.58758 5.67575 26045 ft 418 kts 124°
2026-04-28 14:33 51.57064 5.71388 26508 ft 420 kts 124°
2026-04-28 14:34 51.53646 5.79078 27323 ft 427 kts 124°
2026-04-28 14:34 51.51901 5.82995 27592 ft 433 kts 125°
2026-04-28 14:34 51.50138 5.86945 27937 ft 436 kts 124°
2026-04-28 14:35 51.48364 5.90907 28417 ft 437 kts 125°
2026-04-28 14:35 51.46586 5.94872 28848 ft 439 kts 124°
2026-04-28 14:35 51.44798 5.98854 29212 ft 442 kts 125°
2026-04-28 14:35 51.42993 6.02869 29545 ft 445 kts 125°
2026-04-28 14:36 51.41177 6.06900 29885 ft 448 kts 125°
2026-04-28 14:36 51.39346 6.10965 30170 ft 452 kts 125°
2026-04-28 14:36 51.37503 6.15052 30450 ft 454 kts 125°
2026-04-28 14:36 51.35648 6.19156 30772 ft 455 kts 126°
2026-04-28 14:37 51.33790 6.23258 31153 ft 455 kts 126°
2026-04-28 14:37 51.31929 6.27358 31369 ft 458 kts 126°
2026-04-28 14:37 51.30050 6.31491 31675 ft 459 kts 126°
2026-04-28 14:37 51.28173 6.35612 32038 ft 459 kts 127°
2026-04-28 14:38 51.26292 6.39738 32353 ft 460 kts 127°
2026-04-28 14:38 51.24398 6.43884 32597 ft 463 kts 127°
2026-04-28 14:38 51.22502 6.48027 33066 ft 460 kts 127°
2026-04-28 14:38 51.20618 6.52140 33442 ft 460 kts 127°
2026-04-28 14:39 51.18729 6.56255 33766 ft 460 kts 127°
2026-04-28 14:39 51.16835 6.60377 34009 ft 463 kts 127°
2026-04-28 14:39 51.14930 6.64514 34283 ft 464 kts 128°
2026-04-28 14:39 51.13020 6.68657 34532 ft 464 kts 128°
2026-04-28 14:40 51.11108 6.72798 34822 ft 464 kts 128°
2026-04-28 14:40 51.09843 6.75533 35031 ft 463 kts 128°
2026-04-28 14:40 51.07288 6.81050 35444 ft 462 kts 128°
2026-04-28 14:40 51.05379 6.85163 35719 ft 462 kts 128°
2026-04-28 14:41 51.03472 6.89266 35974 ft 462 kts 128°
2026-04-28 14:41 51.01561 6.93371 36234 ft 462 kts 128°
2026-04-28 14:41 50.99647 6.97474 36513 ft 462 kts 128°
2026-04-28 14:41 50.97738 7.01563 36784 ft 461 kts 127°
2026-04-28 14:42 50.95827 7.05647 37065 ft 461 kts 127°
2026-04-28 14:42 50.91977 7.13857 37161 ft 467 kts 127°
2026-04-28 14:43 50.88068 7.22170 37172 ft 474 kts 127°
2026-04-28 14:43 50.84097 7.30585 37164 ft 478 kts 127°
2026-04-28 14:44 50.80106 7.39013 37159 ft 479 kts 128°
2026-04-28 14:44 50.76106 7.47435 37165 ft 479 kts 128°
2026-04-28 14:45 50.71844 7.55481 37163 ft 477 kts 139°
2026-04-28 14:45 50.66530 7.61539 37185 ft 474 kts 149°
2026-04-28 14:46 50.60930 7.67185 37162 ft 475 kts 149°
2026-04-28 14:46 50.55419 7.72794 37166 ft 475 kts 149°
2026-04-28 14:47 50.49890 7.78470 37165 ft 474 kts 149°
2026-04-28 14:47 50.44374 7.84136 37165 ft 474 kts 149°
2026-04-28 14:48 50.38849 7.89791 37162 ft 474 kts 149°
2026-04-28 14:48 50.33321 7.95430 37163 ft 474 kts 149°
2026-04-28 14:49 50.27788 8.01056 37156 ft 475 kts 149°
2026-04-28 14:49 50.22245 8.06674 37151 ft 475 kts 149°
2026-04-28 14:50 50.16695 8.12287 37149 ft 475 kts 149°
2026-04-28 14:50 50.11028 8.17520 37146 ft 472 kts 157°
2026-04-28 14:51 50.05076 8.21803 37147 ft 471 kts 159°
2026-04-28 14:51 49.99095 8.25982 37151 ft 472 kts 159°
2026-04-28 14:52 49.93120 8.30215 37144 ft 472 kts 158°
2026-04-28 14:52 49.87152 8.34487 37119 ft 473 kts 158°
2026-04-28 14:53 49.81221 8.38735 37122 ft 473 kts 158°
2026-04-28 14:53 49.75206 8.43032 37115 ft 473 kts 158°
2026-04-28 14:54 49.69222 8.47292 37141 ft 474 kts 158°
2026-04-28 14:54 49.63234 8.51542 37131 ft 474 kts 159°
2026-04-28 14:55 49.57240 8.55785 37167 ft 474 kts 159°
2026-04-28 14:55 49.51237 8.60022 37166 ft 475 kts 159°
2026-04-28 14:56 49.45233 8.64249 37151 ft 475 kts 159°
2026-04-28 14:56 49.39257 8.68444 37139 ft 475 kts 160°
2026-04-28 14:57 49.33243 8.72656 37137 ft 476 kts 160°
2026-04-28 14:57 49.27218 8.76863 37112 ft 476 kts 160°
2026-04-28 14:58 49.21192 8.81059 37084 ft 476 kts 160°
2026-04-28 14:58 49.15164 8.85246 37065 ft 476 kts 161°
2026-04-28 14:59 49.09134 8.89423 37076 ft 476 kts 161°
2026-04-28 14:59 49.03098 8.93592 37076 ft 476 kts 161°
2026-04-28 15:00 48.97057 8.97753 37065 ft 477 kts 161°
2026-04-28 15:00 48.91013 9.01907 37055 ft 477 kts 161°
2026-04-28 15:01 48.84963 9.06052 37059 ft 477 kts 161°
2026-04-28 15:01 48.78907 9.10191 37052 ft 477 kts 161°
2026-04-28 15:02 48.72847 9.14321 37046 ft 477 kts 161°
2026-04-28 15:02 48.66791 9.18439 37040 ft 477 kts 161°
2026-04-28 15:03 48.60725 9.22550 37053 ft 478 kts 161°
2026-04-28 15:03 48.54652 9.26656 37055 ft 479 kts 161°
2026-04-28 15:04 48.48558 9.30764 37068 ft 480 kts 161°
2026-04-28 15:04 48.42451 9.34870 37065 ft 482 kts 161°
2026-04-28 15:05 48.36324 9.38977 37065 ft 482 kts 161°
2026-04-28 15:05 48.30190 9.43079 37062 ft 483 kts 161°
2026-04-28 15:06 48.24187 9.47679 37058 ft 491 kts 149°
2026-04-28 15:06 48.18891 9.54106 37067 ft 494 kts 144°
2026-04-28 15:07 48.13640 9.60744 37067 ft 493 kts 144°
2026-04-28 15:07 48.08364 9.67295 37075 ft 493 kts 144°
2026-04-28 15:08 48.03060 9.73783 37072 ft 492 kts 145°
2026-04-28 15:08 47.97759 9.80234 37072 ft 491 kts 145°
2026-04-28 15:09 47.92472 9.86654 37067 ft 490 kts 145°
2026-04-28 15:09 47.87188 9.93056 37077 ft 489 kts 146°
2026-04-28 15:10 47.81911 9.99434 37063 ft 489 kts 146°
2026-04-28 15:10 47.76633 10.05794 37053 ft 488 kts 146°
2026-04-28 15:11 47.71361 10.12131 37058 ft 487 kts 146°
2026-04-28 15:11 47.66088 10.18449 37072 ft 487 kts 146°
2026-04-28 15:12 47.60809 10.24756 37065 ft 488 kts 146°
2026-04-28 15:12 47.55548 10.31006 37078 ft 488 kts 148°
2026-04-28 15:13 47.49964 10.36620 37072 ft 484 kts 152°
2026-04-28 15:13 47.44296 10.41970 37072 ft 482 kts 152°
2026-04-28 15:14 47.38662 10.47375 37084 ft 484 kts 151°
2026-04-28 15:14 47.33011 10.52847 37066 ft 488 kts 151°
2026-04-28 15:15 47.27247 10.58095 37050 ft 484 kts 160°
2026-04-28 15:15 47.21064 10.61911 37065 ft 482 kts 163°
2026-04-28 15:16 47.14851 10.65598 37060 ft 482 kts 163°
2026-04-28 15:16 47.08652 10.69340 37059 ft 482 kts 162°
2026-04-28 15:17 47.02459 10.73114 37045 ft 482 kts 162°
2026-04-28 15:17 46.96274 10.76878 37064 ft 482 kts 162°
2026-04-28 15:18 46.90075 10.80637 37057 ft 482 kts 162°
2026-04-28 15:18 46.83880 10.84379 37087 ft 481 kts 162°
2026-04-28 15:19 46.77721 10.88123 37095 ft 480 kts 160°
2026-04-28 15:19 46.72881 10.92168 37096 ft 484 kts 151°
2026-04-28 15:20 46.66348 10.98477 37107 ft 486 kts 150°
2026-04-28 15:20 46.60693 11.03856 37101 ft 488 kts 150°
2026-04-28 15:21 46.54987 11.09178 37113 ft 486 kts 151°
2026-04-28 15:21 46.50196 11.13618 37103 ft 489 kts 151°
2026-04-28 15:22 46.44466 11.18916 37105 ft 488 kts 151°
2026-04-28 15:22 46.38735 11.24206 37171 ft 489 kts 151°
2026-04-28 15:23 46.33034 11.29456 37080 ft 488 kts 151°
2026-04-28 15:23 46.27294 11.34718 37099 ft 488 kts 153°
2026-04-28 15:24 46.21150 11.38632 37111 ft 480 kts 165°
2026-04-28 15:24 46.14824 11.41723 37086 ft 479 kts 166°
2026-04-28 15:25 46.08511 11.44811 37090 ft 479 kts 166°
2026-04-28 15:25 46.02209 11.47941 37087 ft 479 kts 165°
2026-04-28 15:26 45.95906 11.51093 37093 ft 479 kts 165°
2026-04-28 15:26 45.89602 11.54243 37098 ft 480 kts 165°
2026-04-28 15:27 45.83300 11.57383 37081 ft 479 kts 165°
2026-04-28 15:27 45.76997 11.60515 37055 ft 479 kts 165°
2026-04-28 15:28 45.70701 11.63634 37034 ft 479 kts 165°
2026-04-28 15:28 45.64409 11.66743 37024 ft 478 kts 165°
2026-04-28 15:29 45.58128 11.69840 37025 ft 477 kts 165°
2026-04-28 15:29 45.51846 11.72930 37017 ft 477 kts 165°
2026-04-28 15:30 45.45573 11.76008 37020 ft 477 kts 165°
2026-04-28 15:30 45.39337 11.79061 37021 ft 477 kts 165°
2026-04-28 15:31 45.33059 11.82127 37013 ft 477 kts 165°
2026-04-28 15:31 45.26777 11.85189 37031 ft 477 kts 165°
2026-04-28 15:32 45.20492 11.88244 37045 ft 478 kts 165°
2026-04-28 15:32 45.14202 11.91295 37035 ft 478 kts 165°
2026-04-28 15:33 45.07905 11.94342 37051 ft 478 kts 165°
2026-04-28 15:33 45.01599 11.97386 37052 ft 479 kts 165°
2026-04-28 15:34 44.95295 12.00423 37042 ft 479 kts 165°
2026-04-28 15:34 44.88983 12.03456 37046 ft 479 kts 165°
2026-04-28 15:35 44.82673 12.06481 37048 ft 479 kts 165°
2026-04-28 15:35 44.73206 12.11007 37021 ft 479 kts 165°
2026-04-28 15:36 44.66901 12.14012 37037 ft 478 kts 164°
2026-04-28 15:36 44.60600 12.17008 37035 ft 478 kts 164°
2026-04-28 15:37 44.54304 12.19996 37038 ft 478 kts 165°
2026-04-28 15:37 44.48007 12.22976 37043 ft 478 kts 164°
2026-04-28 15:38 44.41712 12.25949 37034 ft 477 kts 164°
2026-04-28 15:38 44.35417 12.28915 37036 ft 477 kts 164°
2026-04-28 15:39 44.29119 12.31876 37017 ft 477 kts 164°
2026-04-28 15:39 44.22829 12.34827 37022 ft 477 kts 164°
2026-04-28 15:40 44.16577 12.37753 37022 ft 477 kts 164°
2026-04-28 15:40 44.10286 12.40690 37024 ft 477 kts 164°
2026-04-28 15:41 44.03996 12.43621 37023 ft 477 kts 164°
2026-04-28 15:41 43.97708 12.46544 37026 ft 477 kts 164°
2026-04-28 15:42 43.91417 12.49461 37013 ft 477 kts 164°
2026-04-28 15:42 43.85127 12.52372 37022 ft 476 kts 164°
2026-04-28 15:43 43.78841 12.55274 37024 ft 476 kts 164°
2026-04-28 15:43 43.72548 12.58173 37019 ft 476 kts 164°
2026-04-28 15:44 43.66269 12.61058 37014 ft 476 kts 164°
2026-04-28 15:44 43.59990 12.63937 37029 ft 475 kts 164°
2026-04-28 15:45 43.53713 12.66807 37023 ft 475 kts 164°
2026-04-28 15:45 43.47441 12.69666 37017 ft 474 kts 164°
2026-04-28 15:46 43.41176 12.72514 37023 ft 475 kts 165°
2026-04-28 15:46 43.34873 12.75212 36999 ft 474 kts 166°
2026-04-28 15:47 43.28571 12.77832 37012 ft 473 kts 166°
2026-04-28 15:47 43.22270 12.80453 37015 ft 474 kts 166°
2026-04-28 15:48 43.15998 12.83073 37000 ft 474 kts 166°
2026-04-28 15:48 43.09653 12.85724 37012 ft 473 kts 166°
2026-04-28 15:49 43.03396 12.88333 37011 ft 473 kts 166°
2026-04-28 15:49 42.97089 12.90956 37024 ft 474 kts 166°
2026-04-28 15:50 42.90772 12.93577 37043 ft 475 kts 166°
2026-04-28 15:50 42.84449 12.96195 37036 ft 475 kts 166°
2026-04-28 15:51 42.78128 12.98808 37029 ft 474 kts 166°
2026-04-28 15:51 42.71813 13.01411 37045 ft 474 kts 166°
2026-04-28 15:52 42.65499 13.04009 37039 ft 473 kts 166°
2026-04-28 15:52 42.59193 13.06598 37047 ft 474 kts 166°
2026-04-28 15:53 42.52887 13.09181 37045 ft 474 kts 166°
2026-04-28 15:53 42.46576 13.11761 37040 ft 473 kts 166°
2026-04-28 15:54 42.40274 13.14331 37057 ft 473 kts 166°
2026-04-28 15:54 42.33975 13.16895 37039 ft 473 kts 166°
2026-04-28 15:55 42.27678 13.19452 37054 ft 472 kts 166°
2026-04-28 15:55 42.21384 13.22001 37049 ft 472 kts 166°
2026-04-28 15:56 42.15089 13.24544 37042 ft 472 kts 166°
2026-04-28 15:56 42.08836 13.27065 37050 ft 472 kts 166°
2026-04-28 15:57 42.02552 13.29613 37041 ft 472 kts 166°
2026-04-28 15:57 41.96279 13.32205 37045 ft 471 kts 166°
2026-04-28 15:58 41.90007 13.34795 37050 ft 471 kts 166°
2026-04-28 15:58 41.83737 13.37368 37018 ft 471 kts 166°
2026-04-28 15:59 41.78547 13.39490 37039 ft 468 kts 166°
2026-04-28 15:59 41.71262 13.42460 37055 ft 469 kts 166°
2026-04-28 16:00 41.65009 13.45002 37048 ft 471 kts 166°
2026-04-28 16:00 41.58735 13.47551 37042 ft 472 kts 166°
2026-04-28 16:01 41.52452 13.50098 37054 ft 473 kts 166°
2026-04-28 16:01 41.46151 13.52647 37048 ft 473 kts 166°
2026-04-28 16:02 41.39847 13.55191 37040 ft 473 kts 166°
2026-04-28 16:02 41.33545 13.57730 37033 ft 473 kts 166°
2026-04-28 16:03 41.27254 13.60260 37040 ft 472 kts 166°
2026-04-28 16:03 41.20978 13.62777 37046 ft 471 kts 166°
2026-04-28 16:04 41.14704 13.65289 37038 ft 471 kts 166°
2026-04-28 16:04 41.09494 13.67371 37049 ft 470 kts 166°
2026-04-28 16:05 41.02173 13.70291 37055 ft 470 kts 166°
2026-04-28 16:05 40.95909 13.72784 37056 ft 470 kts 166°
2026-04-28 16:06 40.89685 13.75256 37045 ft 470 kts 166°
2026-04-28 16:06 40.83422 13.77738 37057 ft 470 kts 166°
2026-04-28 16:07 40.77151 13.80219 37051 ft 470 kts 166°
2026-04-28 16:08 40.67739 13.83933 37044 ft 471 kts 167°
2026-04-28 16:08 40.61459 13.86405 37055 ft 471 kts 167°
2026-04-28 16:09 40.53084 13.89693 37047 ft 472 kts 167°
2026-04-28 16:10 40.43641 13.93390 37057 ft 472 kts 167°
2026-04-28 16:10 40.34183 13.97078 37057 ft 473 kts 167°
2026-04-28 16:11 40.21482 14.01461 37049 ft 471 kts 172°
2026-04-28 16:12 40.11850 14.04072 37050 ft 472 kts 172°
2026-04-28 16:13 40.02204 14.06753 37039 ft 473 kts 172°
2026-04-28 16:14 39.89316 14.10372 37049 ft 474 kts 172°
2026-04-28 16:15 39.76399 14.13981 37049 ft 475 kts 172°
2026-04-28 16:15 39.69980 14.15769 37049 ft 475 kts 172°
2026-04-28 16:16 39.60285 14.18462 37046 ft 475 kts 172°
2026-04-28 16:17 39.50592 14.21146 37045 ft 475 kts 172°
2026-04-28 16:17 39.44118 14.22934 37047 ft 476 kts 172°
2026-04-28 16:18 39.37639 14.24717 37041 ft 475 kts 172°
2026-04-28 16:18 39.31270 14.26474 36881 ft 465 kts 173°
2026-04-28 16:19 39.28101 14.27250 36369 ft 461 kts 175°
2026-04-28 16:19 39.24947 14.27902 35809 ft 458 kts 176°
2026-04-28 16:19 39.21800 14.28500 35206 ft 457 kts 176°
2026-04-28 16:19 39.18652 14.29083 34606 ft 457 kts 176°
2026-04-28 16:20 39.15510 14.29666 33986 ft 457 kts 175°
2026-04-28 16:20 39.12364 14.30259 33237 ft 457 kts 176°
2026-04-28 16:20 39.09221 14.30861 32567 ft 456 kts 176°
2026-04-28 16:20 39.06081 14.31467 31899 ft 456 kts 175°
2026-04-28 16:21 39.02948 14.32075 31224 ft 455 kts 175°
2026-04-28 16:21 38.99815 14.32683 30535 ft 455 kts 175°
2026-04-28 16:21 38.96697 14.33290 30031 ft 451 kts 175°
2026-04-28 16:21 38.93614 14.33889 29440 ft 446 kts 175°
2026-04-28 16:22 38.90570 14.34480 28916 ft 439 kts 175°
2026-04-28 16:22 38.87569 14.35062 28417 ft 433 kts 175°
2026-04-28 16:22 38.84606 14.35635 27907 ft 428 kts 175°
2026-04-28 16:22 38.81682 14.36199 27412 ft 423 kts 175°
2026-04-28 16:23 38.78782 14.36757 26913 ft 419 kts 175°
2026-04-28 16:23 38.75916 14.37308 26431 ft 416 kts 175°
2026-04-28 16:23 38.73035 14.37860 25962 ft 423 kts 174°
2026-04-28 16:23 38.70101 14.38420 25470 ft 429 kts 174°
2026-04-28 16:24 38.67167 14.38984 24947 ft 424 kts 175°
2026-04-28 16:24 38.64263 14.39544 24456 ft 419 kts 175°
2026-04-28 16:24 38.61400 14.40095 23975 ft 414 kts 175°
2026-04-28 16:24 38.58562 14.40640 23446 ft 411 kts 175°
2026-04-28 16:25 38.55754 14.41177 22896 ft 406 kts 175°
2026-04-28 16:25 38.52978 14.41707 22389 ft 401 kts 175°
2026-04-28 16:25 38.50241 14.42229 21921 ft 395 kts 175°
2026-04-28 16:25 38.47540 14.42743 21444 ft 390 kts 175°
2026-04-28 16:26 38.44872 14.43250 20958 ft 386 kts 175°
2026-04-28 16:26 38.42233 14.43750 20507 ft 381 kts 175°
2026-04-28 16:26 38.39622 14.44246 20059 ft 377 kts 175°
2026-04-28 16:26 38.37043 14.44738 19611 ft 373 kts 174°
2026-04-28 16:27 38.34487 14.45251 19164 ft 371 kts 171°
2026-04-28 16:27 38.32018 14.46197 18832 ft 370 kts 159°
2026-04-28 16:27 38.27330 14.48986 18153 ft 383 kts 156°
2026-04-28 16:28 38.24922 14.50450 17645 ft 383 kts 156°
2026-04-28 16:28 38.22535 14.51892 17161 ft 377 kts 156°
2026-04-28 16:28 38.20176 14.53305 16686 ft 372 kts 157°
2026-04-28 16:28 38.17846 14.54691 16232 ft 368 kts 157°
2026-04-28 16:29 38.13255 14.57404 15344 ft 360 kts 157°
2026-04-28 16:29 38.08748 14.60057 14470 ft 354 kts 156°
2026-04-28 16:30 38.06522 14.61366 14030 ft 351 kts 156°
2026-04-28 16:30 38.04309 14.62666 13558 ft 350 kts 156°
2026-04-28 16:30 38.02108 14.63958 13096 ft 348 kts 156°
2026-04-28 16:30 37.99920 14.65243 12638 ft 345 kts 156°
2026-04-28 16:31 37.97750 14.66518 12209 ft 343 kts 156°
2026-04-28 16:31 37.95592 14.67773 11769 ft 340 kts 159°
2026-04-28 16:31 37.93337 14.68569 11351 ft 334 kts 173°
2026-04-28 16:31 37.91043 14.68707 10928 ft 328 kts 186°
2026-04-28 16:32 37.88808 14.68403 10771 ft 318 kts 188°
2026-04-28 16:32 37.84505 14.67735 10487 ft 307 kts 189°
2026-04-28 16:32 37.82394 14.67407 10338 ft 304 kts 189°
2026-04-28 16:33 37.80332 14.67093 10225 ft 293 kts 189°
2026-04-28 16:33 37.79007 14.66893 10138 ft 287 kts 189°
2026-04-28 16:33 37.76403 14.66502 9880 ft 279 kts 189°
2026-04-28 16:33 37.74480 14.66214 9582 ft 277 kts 189°
2026-04-28 16:34 37.72575 14.65929 9293 ft 274 kts 188°
2026-04-28 16:34 37.70689 14.65648 9020 ft 272 kts 188°
2026-04-28 16:34 37.68816 14.65370 8748 ft 270 kts 188°
2026-04-28 16:34 37.66953 14.65093 8472 ft 269 kts 189°
2026-04-28 16:35 37.65100 14.64819 8199 ft 267 kts 188°
2026-04-28 16:35 37.63257 14.64546 7926 ft 266 kts 188°
2026-04-28 16:35 37.61420 14.64274 7653 ft 266 kts 188°
2026-04-28 16:35 37.59587 14.64003 7378 ft 265 kts 188°
2026-04-28 16:36 37.57762 14.63733 7111 ft 264 kts 187°
2026-04-28 16:36 37.55943 14.63464 6843 ft 262 kts 187°
2026-04-28 16:36 37.54158 14.63200 6582 ft 261 kts 186°
2026-04-28 16:36 37.52356 14.62935 6310 ft 260 kts 186°
2026-04-28 16:37 37.50564 14.62673 6042 ft 258 kts 186°
2026-04-28 16:37 37.48784 14.62414 5773 ft 257 kts 186°
2026-04-28 16:37 37.47014 14.62151 5499 ft 256 kts 186°
2026-04-28 16:38 37.43842 14.63350 5106 ft 246 kts 126°
2026-04-28 16:38 37.43205 14.65297 5000 ft 240 kts 98°
2026-04-28 16:38 37.43269 14.67353 4972 ft 231 kts 82°
2026-04-28 16:38 37.43527 14.69320 4855 ft 225 kts 82°
2026-04-28 16:39 37.43748 14.71248 4718 ft 220 kts 84°
2026-04-28 16:39 37.43923 14.73141 4555 ft 216 kts 85°
2026-04-28 16:39 37.44078 14.74996 4423 ft 208 kts 85°
2026-04-28 16:39 37.44221 14.76746 4400 ft 197 kts 86°
2026-04-28 16:40 37.44358 14.78474 4175 ft 198 kts 86°
2026-04-28 16:40 37.44498 14.80194 3910 ft 196 kts 86°
2026-04-28 16:40 37.44636 14.81889 3654 ft 193 kts 85°
2026-04-28 16:40 37.44770 14.83555 3405 ft 190 kts 86°
2026-04-28 16:41 37.44904 14.85208 3172 ft 189 kts 88°
2026-04-28 16:41 37.45039 14.86859 2907 ft 189 kts 86°
2026-04-28 16:41 37.45174 14.88496 2672 ft 188 kts 86°
2026-04-28 16:41 37.45307 14.90120 2426 ft 185 kts 86°
2026-04-28 16:42 37.45442 14.91726 2183 ft 183 kts 85°
2026-04-28 16:42 37.45572 14.93302 1938 ft 179 kts 86°
2026-04-28 16:42 37.45697 14.94829 1700 ft 170 kts 86°
2026-04-28 16:42 37.45815 14.96254 1510 ft 156 kts 86°
2026-04-28 16:43 37.45923 14.97505 1275 ft 137 kts 85°
2026-04-28 16:43 37.46037 14.98744 1104 ft 141 kts 83°
2026-04-28 16:43 37.46138 14.99947 903 ft 138 kts 84°
2026-04-28 16:43 37.46229 15.01164 800 ft 138 kts 84°
2026-04-28 16:44 37.46325 15.02370 603 ft 141 kts 81°
2026-04-28 16:44 37.46430 15.03589 377 ft 138 kts 82°
2026-04-28 16:44 37.46525 15.04794 190 ft 140 kts 81°
2026-04-28 16:44 37.46633 15.06019 39 ft 136 kts 86°
2026-04-28 16:45 37.46716 15.07057 35 ft 99 kts 83°
2026-04-28 16:45 37.46791 15.07636 35 ft 37 kts 62°
2026-04-28 16:45 37.46876 15.07799 33 ft 17 kts 51°
2026-04-28 16:45 37.46940 15.07797 31 ft 10 kts 289°
2026-04-28 16:46 37.46935 15.07716 32 ft 9 kts 265°
2026-04-28 16:46 37.46927 15.07635 32 ft 9 kts 261°
2026-04-28 16:46 37.46919 15.07546 32 ft 13 kts 265°
2026-04-28 16:46 37.46907 15.07398 30 ft 21 kts 264°
2026-04-28 16:47 37.46892 15.07206 31 ft 22 kts 264°
2026-04-28 16:47 37.46879 15.07064 31 ft 12 kts 264°
2026-04-28 16:47 37.46869 15.06962 31 ft 7 kts 261°
2026-04-28 16:47 37.46884 15.06922 30 ft 3 kts 341°
2026-04-28 16:48 37.46906 15.06918 31 ft 3 kts 353°
2026-04-28 16:48 37.46931 15.06915 31 ft 4 kts 354°
2026-04-28 16:48 37.46935 15.06914 31 ft 0 kts 354°